<?xml version="1.0"?>
<gpx xmlns="http://www.topografix.com/GPX/1/1" xmlns:xsi="http://www.w3.org/2001/XMLSchema-instance" version="1.1" creator="GPX RubyGem 1.0.0 -- http://dougfales.github.io/gpx/" xsi:schemaLocation="http://www.topografix.com/GPX/1/1 http://www.topografix.com/GPX/1/1/gpx.xsd">
  <metadata>
    <name/>
    <time>2026-05-04T21:35:45+00:00</time>
    <bound minlat="90.0" minlon="180.0" maxlat="-90.0" maxlon="-180.0"/>
  </metadata>
  <trk>
    <name/>
    <trkseg>
      <trkpt lat="43.28878" lon="17.024194">
        <time>1970-01-01T00:00:00+00:00</time>
        <ele>15.0</ele>
      </trkpt>
      <trkpt lat="43.288883" lon="17.024275">
        <time>1970-01-01T00:00:00+00:00</time>
        <ele>15.0</ele>
      </trkpt>
      <trkpt lat="43.288966" lon="17.024082">
        <time>1970-01-01T00:00:00+00:00</time>
        <ele>14.0</ele>
      </trkpt>
      <trkpt lat="43.289059" lon="17.024147">
        <time>1970-01-01T00:00:00+00:00</time>
        <ele>14.0</ele>
      </trkpt>
      <trkpt lat="43.289104" lon="17.024182">
        <time>1970-01-01T00:00:00+00:00</time>
        <ele>14.0</ele>
      </trkpt>
      <trkpt lat="43.289395" lon="17.024409">
        <time>1970-01-01T00:00:00+00:00</time>
        <ele>16.0</ele>
      </trkpt>
      <trkpt lat="43.290091" lon="17.024929">
        <time>1970-01-01T00:00:00+00:00</time>
        <ele>16.0</ele>
      </trkpt>
      <trkpt lat="43.290259" lon="17.025055">
        <time>1970-01-01T00:00:00+00:00</time>
        <ele>16.0</ele>
      </trkpt>
      <trkpt lat="43.290425" lon="17.025104">
        <time>1970-01-01T00:00:00+00:00</time>
        <ele>16.0</ele>
      </trkpt>
      <trkpt lat="43.290449" lon="17.025172">
        <time>1970-01-01T00:00:00+00:00</time>
        <ele>16.0</ele>
      </trkpt>
      <trkpt lat="43.290303" lon="17.025331">
        <time>1970-01-01T00:00:00+00:00</time>
        <ele>17.0</ele>
      </trkpt>
      <trkpt lat="43.29008" lon="17.025595">
        <time>1970-01-01T00:00:00+00:00</time>
        <ele>19.0</ele>
      </trkpt>
      <trkpt lat="43.289397" lon="17.026491">
        <time>1970-01-01T00:00:00+00:00</time>
        <ele>24.0</ele>
      </trkpt>
      <trkpt lat="43.288823" lon="17.027054">
        <time>1970-01-01T00:00:00+00:00</time>
        <ele>28.0</ele>
      </trkpt>
      <trkpt lat="43.288599" lon="17.027231">
        <time>1970-01-01T00:00:00+00:00</time>
        <ele>30.0</ele>
      </trkpt>
      <trkpt lat="43.288016" lon="17.027691">
        <time>1970-01-01T00:00:00+00:00</time>
        <ele>34.0</ele>
      </trkpt>
      <trkpt lat="43.286968" lon="17.028519">
        <time>1970-01-01T00:00:00+00:00</time>
        <ele>39.0</ele>
      </trkpt>
      <trkpt lat="43.286663" lon="17.02883">
        <time>1970-01-01T00:00:00+00:00</time>
        <ele>41.0</ele>
      </trkpt>
      <trkpt lat="43.28625" lon="17.029345">
        <time>1970-01-01T00:00:00+00:00</time>
        <ele>45.0</ele>
      </trkpt>
      <trkpt lat="43.285928" lon="17.029816">
        <time>1970-01-01T00:00:00+00:00</time>
        <ele>50.0</ele>
      </trkpt>
      <trkpt lat="43.285333" lon="17.02921">
        <time>1970-01-01T00:00:00+00:00</time>
        <ele>46.0</ele>
      </trkpt>
      <trkpt lat="43.285302" lon="17.029143">
        <time>1970-01-01T00:00:00+00:00</time>
        <ele>46.0</ele>
      </trkpt>
      <trkpt lat="43.285259" lon="17.028947">
        <time>1970-01-01T00:00:00+00:00</time>
        <ele>47.0</ele>
      </trkpt>
      <trkpt lat="43.285275" lon="17.028577">
        <time>1970-01-01T00:00:00+00:00</time>
        <ele>49.0</ele>
      </trkpt>
      <trkpt lat="43.285072" lon="17.027867">
        <time>1970-01-01T00:00:00+00:00</time>
        <ele>56.0</ele>
      </trkpt>
      <trkpt lat="43.284941" lon="17.027603">
        <time>1970-01-01T00:00:00+00:00</time>
        <ele>56.0</ele>
      </trkpt>
      <trkpt lat="43.284867" lon="17.0278">
        <time>1970-01-01T00:00:00+00:00</time>
        <ele>57.0</ele>
      </trkpt>
      <trkpt lat="43.284848" lon="17.027983">
        <time>1970-01-01T00:00:00+00:00</time>
        <ele>59.0</ele>
      </trkpt>
      <trkpt lat="43.284767" lon="17.028153">
        <time>1970-01-01T00:00:00+00:00</time>
        <ele>60.0</ele>
      </trkpt>
      <trkpt lat="43.284738" lon="17.028165">
        <time>1970-01-01T00:00:00+00:00</time>
        <ele>60.0</ele>
      </trkpt>
      <trkpt lat="43.284611" lon="17.028354">
        <time>1970-01-01T00:00:00+00:00</time>
        <ele>61.0</ele>
      </trkpt>
      <trkpt lat="43.284457" lon="17.028533">
        <time>1970-01-01T00:00:00+00:00</time>
        <ele>63.0</ele>
      </trkpt>
      <trkpt lat="43.284062" lon="17.029102">
        <time>1970-01-01T00:00:00+00:00</time>
        <ele>67.0</ele>
      </trkpt>
      <trkpt lat="43.283708" lon="17.029452">
        <time>1970-01-01T00:00:00+00:00</time>
        <ele>70.0</ele>
      </trkpt>
      <trkpt lat="43.283594" lon="17.029744">
        <time>1970-01-01T00:00:00+00:00</time>
        <ele>72.0</ele>
      </trkpt>
      <trkpt lat="43.283398" lon="17.030139">
        <time>1970-01-01T00:00:00+00:00</time>
        <ele>72.0</ele>
      </trkpt>
      <trkpt lat="43.283236" lon="17.030353">
        <time>1970-01-01T00:00:00+00:00</time>
        <ele>72.0</ele>
      </trkpt>
      <trkpt lat="43.283109" lon="17.030522">
        <time>1970-01-01T00:00:00+00:00</time>
        <ele>73.0</ele>
      </trkpt>
      <trkpt lat="43.282993" lon="17.030731">
        <time>1970-01-01T00:00:00+00:00</time>
        <ele>73.0</ele>
      </trkpt>
      <trkpt lat="43.282566" lon="17.031353">
        <time>1970-01-01T00:00:00+00:00</time>
        <ele>72.0</ele>
      </trkpt>
      <trkpt lat="43.282324" lon="17.031683">
        <time>1970-01-01T00:00:00+00:00</time>
        <ele>69.0</ele>
      </trkpt>
      <trkpt lat="43.282053" lon="17.031559">
        <time>1970-01-01T00:00:00+00:00</time>
        <ele>74.0</ele>
      </trkpt>
      <trkpt lat="43.281799" lon="17.031582">
        <time>1970-01-01T00:00:00+00:00</time>
        <ele>76.0</ele>
      </trkpt>
      <trkpt lat="43.28163" lon="17.031657">
        <time>1970-01-01T00:00:00+00:00</time>
        <ele>77.0</ele>
      </trkpt>
      <trkpt lat="43.281351" lon="17.032024">
        <time>1970-01-01T00:00:00+00:00</time>
        <ele>77.0</ele>
      </trkpt>
      <trkpt lat="43.281175" lon="17.032138">
        <time>1970-01-01T00:00:00+00:00</time>
        <ele>78.0</ele>
      </trkpt>
      <trkpt lat="43.280989" lon="17.032165">
        <time>1970-01-01T00:00:00+00:00</time>
        <ele>80.0</ele>
      </trkpt>
      <trkpt lat="43.280917" lon="17.032202">
        <time>1970-01-01T00:00:00+00:00</time>
        <ele>81.0</ele>
      </trkpt>
      <trkpt lat="43.280319" lon="17.032849">
        <time>1970-01-01T00:00:00+00:00</time>
        <ele>69.0</ele>
      </trkpt>
      <trkpt lat="43.280247" lon="17.032917">
        <time>1970-01-01T00:00:00+00:00</time>
        <ele>65.0</ele>
      </trkpt>
      <trkpt lat="43.280198" lon="17.03293">
        <time>1970-01-01T00:00:00+00:00</time>
        <ele>62.0</ele>
      </trkpt>
      <trkpt lat="43.280042" lon="17.032768">
        <time>1970-01-01T00:00:00+00:00</time>
        <ele>53.0</ele>
      </trkpt>
      <trkpt lat="43.280042" lon="17.032768">
        <time>1970-01-01T00:00:00+00:00</time>
        <ele>53.0</ele>
      </trkpt>
      <trkpt lat="43.280198" lon="17.03293">
        <time>1970-01-01T00:00:00+00:00</time>
        <ele>62.0</ele>
      </trkpt>
      <trkpt lat="43.280247" lon="17.032917">
        <time>1970-01-01T00:00:00+00:00</time>
        <ele>65.0</ele>
      </trkpt>
      <trkpt lat="43.280319" lon="17.032849">
        <time>1970-01-01T00:00:00+00:00</time>
        <ele>69.0</ele>
      </trkpt>
      <trkpt lat="43.280917" lon="17.032202">
        <time>1970-01-01T00:00:00+00:00</time>
        <ele>81.0</ele>
      </trkpt>
      <trkpt lat="43.280989" lon="17.032165">
        <time>1970-01-01T00:00:00+00:00</time>
        <ele>80.0</ele>
      </trkpt>
      <trkpt lat="43.281175" lon="17.032138">
        <time>1970-01-01T00:00:00+00:00</time>
        <ele>78.0</ele>
      </trkpt>
      <trkpt lat="43.281351" lon="17.032024">
        <time>1970-01-01T00:00:00+00:00</time>
        <ele>77.0</ele>
      </trkpt>
      <trkpt lat="43.28163" lon="17.031657">
        <time>1970-01-01T00:00:00+00:00</time>
        <ele>77.0</ele>
      </trkpt>
      <trkpt lat="43.281799" lon="17.031582">
        <time>1970-01-01T00:00:00+00:00</time>
        <ele>76.0</ele>
      </trkpt>
      <trkpt lat="43.282053" lon="17.031559">
        <time>1970-01-01T00:00:00+00:00</time>
        <ele>74.0</ele>
      </trkpt>
      <trkpt lat="43.282324" lon="17.031683">
        <time>1970-01-01T00:00:00+00:00</time>
        <ele>69.0</ele>
      </trkpt>
      <trkpt lat="43.282566" lon="17.031353">
        <time>1970-01-01T00:00:00+00:00</time>
        <ele>72.0</ele>
      </trkpt>
      <trkpt lat="43.282993" lon="17.030731">
        <time>1970-01-01T00:00:00+00:00</time>
        <ele>73.0</ele>
      </trkpt>
      <trkpt lat="43.283109" lon="17.030522">
        <time>1970-01-01T00:00:00+00:00</time>
        <ele>73.0</ele>
      </trkpt>
      <trkpt lat="43.283236" lon="17.030353">
        <time>1970-01-01T00:00:00+00:00</time>
        <ele>72.0</ele>
      </trkpt>
      <trkpt lat="43.283398" lon="17.030139">
        <time>1970-01-01T00:00:00+00:00</time>
        <ele>72.0</ele>
      </trkpt>
      <trkpt lat="43.283594" lon="17.029744">
        <time>1970-01-01T00:00:00+00:00</time>
        <ele>72.0</ele>
      </trkpt>
      <trkpt lat="43.283708" lon="17.029452">
        <time>1970-01-01T00:00:00+00:00</time>
        <ele>70.0</ele>
      </trkpt>
      <trkpt lat="43.284062" lon="17.029102">
        <time>1970-01-01T00:00:00+00:00</time>
        <ele>67.0</ele>
      </trkpt>
      <trkpt lat="43.284457" lon="17.028533">
        <time>1970-01-01T00:00:00+00:00</time>
        <ele>63.0</ele>
      </trkpt>
      <trkpt lat="43.284611" lon="17.028354">
        <time>1970-01-01T00:00:00+00:00</time>
        <ele>61.0</ele>
      </trkpt>
      <trkpt lat="43.284738" lon="17.028165">
        <time>1970-01-01T00:00:00+00:00</time>
        <ele>60.0</ele>
      </trkpt>
      <trkpt lat="43.284767" lon="17.028153">
        <time>1970-01-01T00:00:00+00:00</time>
        <ele>60.0</ele>
      </trkpt>
      <trkpt lat="43.284848" lon="17.027983">
        <time>1970-01-01T00:00:00+00:00</time>
        <ele>59.0</ele>
      </trkpt>
      <trkpt lat="43.284867" lon="17.0278">
        <time>1970-01-01T00:00:00+00:00</time>
        <ele>57.0</ele>
      </trkpt>
      <trkpt lat="43.284941" lon="17.027603">
        <time>1970-01-01T00:00:00+00:00</time>
        <ele>56.0</ele>
      </trkpt>
      <trkpt lat="43.285072" lon="17.027867">
        <time>1970-01-01T00:00:00+00:00</time>
        <ele>56.0</ele>
      </trkpt>
      <trkpt lat="43.285275" lon="17.028577">
        <time>1970-01-01T00:00:00+00:00</time>
        <ele>49.0</ele>
      </trkpt>
      <trkpt lat="43.285259" lon="17.028947">
        <time>1970-01-01T00:00:00+00:00</time>
        <ele>47.0</ele>
      </trkpt>
      <trkpt lat="43.285302" lon="17.029143">
        <time>1970-01-01T00:00:00+00:00</time>
        <ele>46.0</ele>
      </trkpt>
      <trkpt lat="43.285333" lon="17.02921">
        <time>1970-01-01T00:00:00+00:00</time>
        <ele>46.0</ele>
      </trkpt>
      <trkpt lat="43.285928" lon="17.029816">
        <time>1970-01-01T00:00:00+00:00</time>
        <ele>50.0</ele>
      </trkpt>
      <trkpt lat="43.28625" lon="17.029345">
        <time>1970-01-01T00:00:00+00:00</time>
        <ele>45.0</ele>
      </trkpt>
      <trkpt lat="43.286663" lon="17.02883">
        <time>1970-01-01T00:00:00+00:00</time>
        <ele>41.0</ele>
      </trkpt>
      <trkpt lat="43.286968" lon="17.028519">
        <time>1970-01-01T00:00:00+00:00</time>
        <ele>39.0</ele>
      </trkpt>
      <trkpt lat="43.288016" lon="17.027691">
        <time>1970-01-01T00:00:00+00:00</time>
        <ele>34.0</ele>
      </trkpt>
      <trkpt lat="43.288599" lon="17.027231">
        <time>1970-01-01T00:00:00+00:00</time>
        <ele>30.0</ele>
      </trkpt>
      <trkpt lat="43.288823" lon="17.027054">
        <time>1970-01-01T00:00:00+00:00</time>
        <ele>28.0</ele>
      </trkpt>
      <trkpt lat="43.289397" lon="17.026491">
        <time>1970-01-01T00:00:00+00:00</time>
        <ele>24.0</ele>
      </trkpt>
      <trkpt lat="43.29008" lon="17.025595">
        <time>1970-01-01T00:00:00+00:00</time>
        <ele>19.0</ele>
      </trkpt>
      <trkpt lat="43.290303" lon="17.025331">
        <time>1970-01-01T00:00:00+00:00</time>
        <ele>17.0</ele>
      </trkpt>
      <trkpt lat="43.290449" lon="17.025172">
        <time>1970-01-01T00:00:00+00:00</time>
        <ele>16.0</ele>
      </trkpt>
      <trkpt lat="43.290425" lon="17.025104">
        <time>1970-01-01T00:00:00+00:00</time>
        <ele>16.0</ele>
      </trkpt>
      <trkpt lat="43.290259" lon="17.025055">
        <time>1970-01-01T00:00:00+00:00</time>
        <ele>16.0</ele>
      </trkpt>
      <trkpt lat="43.290091" lon="17.024929">
        <time>1970-01-01T00:00:00+00:00</time>
        <ele>16.0</ele>
      </trkpt>
      <trkpt lat="43.289395" lon="17.024409">
        <time>1970-01-01T00:00:00+00:00</time>
        <ele>16.0</ele>
      </trkpt>
      <trkpt lat="43.289104" lon="17.024182">
        <time>1970-01-01T00:00:00+00:00</time>
        <ele>14.0</ele>
      </trkpt>
      <trkpt lat="43.289059" lon="17.024147">
        <time>1970-01-01T00:00:00+00:00</time>
        <ele>14.0</ele>
      </trkpt>
      <trkpt lat="43.288966" lon="17.024082">
        <time>1970-01-01T00:00:00+00:00</time>
        <ele>14.0</ele>
      </trkpt>
      <trkpt lat="43.288883" lon="17.024275">
        <time>1970-01-01T00:00:00+00:00</time>
        <ele>15.0</ele>
      </trkpt>
      <trkpt lat="43.28878" lon="17.024194">
        <time>1970-01-01T00:00:00+00:00</time>
        <ele>15.0</ele>
      </trkpt>
    </trkseg>
  </trk>
</gpx>
